This is the latest recevied weather packets stored in our database for station/object SV9TNF-52. If no packets are shown the sender has not sent any weather packets the latest 10 day(s).
| Time | Temp. | Humidity | Pressure | Rain* | Wind** | Luminosity | Snow |
|---|---|---|---|---|---|---|---|
| 1787995006 | 28.33° C | 51% | 1022.7 hPa | 0 mm | 3.13 m/s, 79° | - | - |
| 1787994707 | 27.78° C | 52% | 1022.7 hPa | 0 mm | 4.47 m/s, 69° | - | - |
| 1787994407 | 28.33° C | 51% | 1022.7 hPa | 0 mm | 4.02 m/s, 86° | - | - |
| 1787994106 | 27.78° C | 53% | 1022.7 hPa | 0 mm | 3.58 m/s, 106° | - | - |
| 1787993807 | 27.22° C | 53% | 1022.7 hPa | 0 mm | 2.68 m/s, 83° | - | - |
| 1787993507 | 27.78° C | 52% | 1022.7 hPa | 0 mm | 4.47 m/s, 68° | - | - |
| 1787993206 | 28.33° C | 52% | 1022.7 hPa | 0 mm | 6.71 m/s, 63° | - | - |
| 1787992906 | 27.78° C | 53% | 1022.7 hPa | 0 mm | 4.47 m/s, 99° | - | - |
| 1787992606 | 28.33° C | 51% | 1022.7 hPa | 0 mm | 2.68 m/s, 110° | - | - |
| 1787992306 | 27.78° C | 50% | 1022.7 hPa | 0 mm | 7.6 m/s, 91° | - | - |
| 1787992006 | 27.78° C | 51% | 1022.7 hPa | 0 mm | 4.47 m/s, 85° | - | - |
| 1787991706 | 27.78° C | 53% | 1022.7 hPa | 0 mm | 5.81 m/s, 30° | - | - |
| 1787991406 | 27.22° C | 52% | 1022.7 hPa | 0 mm | 10.28 m/s, 74° | - | - |
| 1787991105 | 27.78° C | 53% | 1022.7 hPa | 0 mm | 4.92 m/s, 85° | - | - |
| 1787990805 | 27.78° C | 53% | 1022.7 hPa | 0 mm | 6.26 m/s, 104° | - | - |
| 1787990505 | 27.22° C | 52% | 1022.7 hPa | 0 mm | 8.05 m/s, 68° | - | - |
| 1787990205 | 27.22° C | 54% | 1022.7 hPa | 0 mm | 6.26 m/s, 66° | - | - |
| 1787989905 | 27.22° C | 55% | 1022.7 hPa | 0 mm | 4.02 m/s, 92° | - | - |
| 1787989605 | 27.22° C | 54% | 1022.7 hPa | 0 mm | 6.71 m/s, 85° | - | - |
| 1787989305 | 27.22° C | 55% | 1022.7 hPa | 0 mm | 6.71 m/s, 75° | - | - |
| 1787989005 | 26.67° C | 54% | 1022.7 hPa | 0 mm | 5.36 m/s, 79° | - | - |
| 1787988705 | 26.11° C | 57% | 1022.7 hPa | 0 mm | 5.36 m/s, 78° | - | - |
| 1787988404 | 26.11° C | 60% | 1022.7 hPa | 0 mm | 6.26 m/s, 70° | - | - |
| 1787988104 | 26.11° C | 59% | 1022.4 hPa | 0 mm | 5.36 m/s, 74° | - | - |
| 1787987804 | 26.11° C | 59% | 1022.4 hPa | 0 mm | 8.05 m/s, 113° | - | - |
* Rain latest hour (hover to see other rain measurements)
** Current wind speed in m/s (hover to see current wind gust speed)